SL-19 DEB, 23493

Orbit data source: Space-Track

SL-19 DEB, 23493 is space debris in LEO originally from a launch on Mon, 26 Dec 1994 UTC launched from the Tyuratam Missile And Space Complex (TTMTR). Debris objects in space refer to the collection of defunct objects orbiting the Earth. Examples of debris include non-operational satellites, rocket bodies, and fragments generated from explosions, collisions, or faulty payload assembly.

Loading next visibility...
Identifier
23493, 1994-085R
Orbit
LEO
Country
Flag of CISCIS
Related business
Manufacturer
Unknown
Mission
Spacecraft
Bus & Motor
Unknown
Mass
Unknown
Launch date (UTC)
1994-12-26 (31 years ago)
Launch vehicle
Unknown
Launch site
Tyuratam Missile And Space Complex (TTMTR)
Object type
Payload
Rocket body
Debris
Shape & HBR
Unknown shape, 0.1 m
Radar Cross Section
Small (<0.1 m²)

Expand to show TLE details & history
Last TLE update: 4 days ago

TLE from 4 days ago
0 SL-19 DEB
1 23493U 94085R   26059.41115148  .00000004  00000-0  12769-2 0  9995
2 23493  64.9411  52.5855 0147104 202.7369 314.4944 11.31960948288148
Epoch: 2026-02-28T09:52Z
TLE epoch observation values (Epoch: 2026-02-28T09:52:03.487Z)
Latitude
21.63443°
Longitude
-84.29917°
Altitude
1,916.668 km
Speed
6.97 km/s
True Right ascension
14h 47m 47s
True Declination
21° 31' 60"
Sunlit
Object was in daylight at epoch
Visualization orbit readout
Latitude
Unknown
Longitude
Unknown
Altitude
Unknown
Speed
Unknown
Apparent Right ascension
Unknown
Apparent Declination
Unknown
Sunlit
N/A
Visualization observer readout
Local Sidereal Time
01:40:11
Azimuth
Unknown
Elevation
Unknown
Doppler factor
Unknown
Orbital elements
Apogee altitude
2,122.673 km
Perigee altitude
1,876.198 km
Semi-major axis
8,377.573 km
Eccentricity
0.01471
Inclination
64.9411°
RAAN
52.5855°
Arg. of periapsis
202.7369°
True anomaly
313.27637°
Mean anomaly
314.4944°
Eccentric anomaly
313.88695°
Mean motion
2.83052 °/min
Orbital period
127.19 mins
BSTAR
0.0012769
Loading maneuver chart data...
Computing Atmospheric mass density...
Loading historical data...
Loading historical data...
Loading historical data...
Loading historical data...
Loading historical data...
Loading historical data...
Loading historical data...

Documentation

Showing up to 5 results
|